Location: Axtheid
(49.6213°N, 11.8205°E)
Time: 23:29:08
(UTC+00:00)

SL-16 R/B - Pass Details

Date: 18 February 2020
Orbit: 843 x 847 km, 71.0° (Epoch: 05 April)

Event Time Altitude Azimuth Distance (km) Brightness Sun altitude
Exits shadow 02:47:01 36° 107° (ESE) 1,312 3.4 -34.3°
Maximum altitude 02:47:02 36° 107° (ESE) 1,312 3.4 -34.3°
Drops below altitude 10° 02:52:10 10° 42° (NE) 2,475 5.3 -33.5°
Sets 02:54:47 0° 35° (NE) 3,414 6.1 -33.1°
